Estación de Las Puertas
Ultimos registro cada 15 minutos 36
| N° | Estación | Fecha / Hora | Temperatura | Humedad | Lluvia | Velocidad | Dirección | Radiación | Presion |
| 36 | Las Puertas | 02-05-2026 08:45 | 9,9 | 77 | 0 | 0 | 67 | 171 | 1016 |
| 35 | Las Puertas | 02-05-2026 08:30 | 8,7 | 79 | 0 | 0 | 100 | 95 | 1015,8 |
| 34 | Las Puertas | 02-05-2026 08:15 | 8,3 | 79 | 0 | 0 | 88 | 14 | 1015,8 |
| 33 | Las Puertas | 02-05-2026 08:00 | 8 | 80 | 0 | 0 | 344 | 12 | 1015,8 |
| 32 | Las Puertas | 02-05-2026 07:45 | 7,9 | 78 | 0 | 0 | 18 | 11 | 1015,7 |
| 31 | Las Puertas | 02-05-2026 07:30 | 8,1 | 79 | 0 | 0 | 9 | 7 | 1015,6 |
| 30 | Las Puertas | 02-05-2026 07:15 | 8,1 | 77 | 0 | 0 | 9 | 0 | 1015,6 |
| 29 | Las Puertas | 02-05-2026 07:00 | 8,5 | 77 | 0 | 0 | 40 | 0 | 1015,4 |
| 28 | Las Puertas | 02-05-2026 06:45 | 8,9 | 77 | 0 | 0 | 40 | 0 | 1015,3 |
| 27 | Las Puertas | 02-05-2026 06:30 | 9,4 | 75 | 0 | 0 | 21 | 0 | 1015,5 |
| 26 | Las Puertas | 02-05-2026 06:15 | 9,9 | 76 | 0 | 0 | 85 | 0 | 1015,5 |
| 25 | Las Puertas | 02-05-2026 06:00 | 10,1 | 76 | 0 | 0 | 66 | 0 | 1015,4 |
| 24 | Las Puertas | 02-05-2026 05:45 | 10,6 | 74 | 0 | 0 | 74 | 0 | 1015,5 |
| 23 | Las Puertas | 02-05-2026 05:30 | 9,8 | 78 | 0 | 0,9 | 121 | 0 | 1015,6 |
| 22 | Las Puertas | 02-05-2026 05:15 | 9,8 | 76 | 0 | 0 | 92 | 0 | 1015,7 |
| 21 | Las Puertas | 02-05-2026 05:00 | 9,7 | 80 | 0 | 0 | 90 | 0 | 1015,8 |
| 20 | Las Puertas | 02-05-2026 04:45 | 9,6 | 79 | 0 | 0 | 109 | 0 | 1015,8 |
| 19 | Las Puertas | 02-05-2026 04:30 | 9,8 | 77 | 0 | 0 | 111 | 0 | 1016 |
| 18 | Las Puertas | 02-05-2026 04:15 | 10,3 | 77 | 0 | 0 | 90 | 0 | 1016 |
| 17 | Las Puertas | 02-05-2026 04:00 | 10,7 | 77 | 0 | 0,4 | 90 | 0 | 1016,1 |
| 16 | Las Puertas | 02-05-2026 03:45 | 9,9 | 80 | 0 | 0 | 84 | 0 | 1016,1 |
| 15 | Las Puertas | 02-05-2026 03:30 | 9,9 | 79 | 0 | 0 | 92 | 0 | 1016,2 |
| 14 | Las Puertas | 02-05-2026 03:15 | 9,8 | 79 | 0 | 0 | 89 | 0 | 1016,4 |
| 13 | Las Puertas | 02-05-2026 03:00 | 10,1 | 78 | 0 | 0 | 146 | 0 | 1016,5 |
| 12 | Las Puertas | 02-05-2026 02:45 | 10,6 | 78 | 0 | 0 | 146 | 0 | 1016,7 |
| 11 | Las Puertas | 02-05-2026 02:30 | 10,2 | 78 | 0 | 0 | 94 | 0 | 1016,7 |
| 10 | Las Puertas | 02-05-2026 02:15 | 10,4 | 78 | 0 | 0 | 69 | 0 | 1016,9 |
| 9 | Las Puertas | 02-05-2026 02:00 | 10,9 | 77 | 0 | 0 | 115 | 0 | 1017 |
| 8 | Las Puertas | 02-05-2026 01:45 | 10,9 | 78 | 0 | 0 | 115 | 0 | 1017,2 |
| 7 | Las Puertas | 02-05-2026 01:30 | 11,2 | 77 | 0 | 0 | 115 | 0 | 1017,3 |
| 6 | Las Puertas | 02-05-2026 01:15 | 11,3 | 77 | 0 | 0 | 97 | 0 | 1017,3 |
| 5 | Las Puertas | 02-05-2026 01:00 | 11,2 | 78 | 0 | 0 | 94 | 0 | 1017,6 |
| 4 | Las Puertas | 02-05-2026 00:45 | 11,3 | 77 | 0 | 0 | 88 | 0 | 1017,8 |
| 3 | Las Puertas | 02-05-2026 00:30 | 11,3 | 78 | 0 | 0 | 115 | 0 | 1017,9 |
| 2 | Las Puertas | 02-05-2026 00:15 | 11,3 | 77 | 0 | 0,4 | 105 | 0 | 1018,1 |
| 1 | Las Puertas | 02-05-2026 00:00 | 11,7 | 77 | 0 | 0 | 98 | 0 | 1018,1 |